When you browse on this site, cookies collect data to enhance your experience and personalize the content and advertising you see.
Visit our Privacy Policy to learn more. By continuing to use the site, you agree to this use of cookies and data.
  • In Latvia
  • List of Countries
  • For 7 days
  • Water Temperature
  • Weather Map
  • Weather Widgets
  • user-avatar
    Login

    Hourly Weather Madras

    Today, 28 February, Friday

    Time Temperature Precipitation Wind Pressure Humidity
    00:00 +26°C° 0 mm 3 mps 758 mmHg 82%
    01:00 +26°C° 0 mm 3 mps 757 mmHg 83%
    02:00 +26°C° 0 mm 3 mps 757 mmHg 84%
    03:00 +26°C° 0 mm 3 mps 757 mmHg 85%
    04:00 +25°C° 0 mm 3 mps 757 mmHg 86%
    05:00 +25°C° 0 mm 2 mps 757 mmHg 88%
    06:00 +26°C° 0.1 mm 2 mps 758 mmHg 83%
    07:00 +27°C° 0.1 mm 2 mps 758 mmHg 79%
    08:00 +28°C° 0.1 mm 1 mps 759 mmHg 74%
    09:00 +30°C° 0 mm 2 mps 759 mmHg 66%
    10:00 +31°C° 0 mm 3 mps 758 mmHg 59%
    11:00 +33°C° 0 mm 3 mps 758 mmHg 51%
    12:00 +33°C° 0 mm 4 mps 758 mmHg 51%
    13:00 +33°C° 0 mm 4 mps 757 mmHg 51%
    14:00 +33°C° 0 mm 5 mps 756 mmHg 51%
    15:00 +32°C° 0 mm 5 mps 756 mmHg 55%
    16:00 +30°C° 0 mm 5 mps 756 mmHg 58%
    17:00 +29°C° 0 mm 3 mps 756 mmHg 63%
    18:00 +29°C° 0 mm 3 mps 757 mmHg 67%
    19:00 +28°C° 0 mm 4 mps 757 mmHg 70%
    20:00 +27°C° 0 mm 4 mps 758 mmHg 74%
    21:00 +27°C° 0 mm 4 mps 758 mmHg 75%
    22:00 +27°C° 0 mm 4 mps 758 mmHg 77%
    23:00 +26°C° 0 mm 3 mps 758 mmHg 78%

    Tomorrow, 29 February, Saturday

    Time Temperature Precipitation Wind Pressure Humidity
    00:00 +26°C° 0 mm 3 mps 757 mmHg 78%
    01:00 +26°C° 0 mm 3 mps 757 mmHg 79%
    02:00 +26°C° 0 mm 2 mps 756 mmHg 79%
    03:00 +26°C° 0 mm 2 mps 756 mmHg 80%
    04:00 +25°C° 0 mm 2 mps 756 mmHg 80%
    05:00 +25°C° 0 mm 2 mps 757 mmHg 81%
    06:00 +26°C° 0 mm 2 mps 757 mmHg 76%
    07:00 +27°C° 0 mm 1 mps 758 mmHg 72%
    08:00 +28°C° 0 mm 1 mps 758 mmHg 68%
    09:00 +29°C° 0 mm 2 mps 758 mmHg 62%
    10:00 +31°C° 0 mm 2 mps 758 mmHg 56%
    11:00 +33°C° 0 mm 3 mps 758 mmHg 51%
    12:00 +33°C° 0 mm 3 mps 757 mmHg 51%
    13:00 +33°C° 0 mm 4 mps 757 mmHg 51%
    14:00 +33°C° 0 mm 4 mps 756 mmHg 51%
    15:00 +32°C° 0 mm 5 mps 756 mmHg 57%
    16:00 +30°C° 0 mm 5 mps 756 mmHg 62%
    17:00 +29°C° 0 mm 5 mps 756 mmHg 67%
    18:00 +29°C° 0 mm 5 mps 757 mmHg 71%
    19:00 +28°C° 0 mm 5 mps 757 mmHg 74%
    20:00 +27°C° 0 mm 5 mps 758 mmHg 77%
    21:00 +27°C° 0 mm 5 mps 758 mmHg 77%
    22:00 +27°C° 0 mm 5 mps 758 mmHg 76%
    23:00 +26°C° 0 mm 4 mps 759 mmHg 76%

    Day after tomorrow, 1 March, Sunday

    Time Temperature Precipitation Wind Pressure Humidity
    00:00 +26°C° 0 mm 4 mps 758 mmHg 76%
    01:00 +26°C° 0 mm 3 mps 758 mmHg 77%
    02:00 +25°C° 0 mm 3 mps 757 mmHg 77%
    03:00 +25°C° 0 mm 2 mps 757 mmHg 78%
    04:00 +25°C° 0 mm 2 mps 757 mmHg 79%
    05:00 +25°C° 0 mm 1 mps 757 mmHg 80%
    06:00 +26°C° 0 mm 1 mps 758 mmHg 75%
    07:00 +27°C° 0 mm 1 mps 758 mmHg 71%
    08:00 +28°C° 0 mm 2 mps 759 mmHg 66%
    09:00 +29°C° 0 mm 2 mps 759 mmHg 58%
    10:00 +31°C° 0 mm 2 mps 759 mmHg 51%
    11:00 +33°C° 0 mm 3 mps 758 mmHg 43%
    12:00 +33°C° 0 mm 3 mps 757 mmHg 43%
    13:00 +33°C° 0 mm 4 mps 757 mmHg 43%
    14:00 +34°C° 0 mm 4 mps 756 mmHg 43%
    15:00 +33°C° 0 mm 4 mps 756 mmHg 47%
    16:00 +30°C° 0 mm 4 mps 756 mmHg 50%
    17:00 +29°C° 0 mm 4 mps 756 mmHg 54%
    18:00 +28°C° 0 mm 4 mps 757 mmHg 59%
    19:00 +27°C° 0 mm 4 mps 757 mmHg 63%
    20:00 +27°C° 0 mm 4 mps 758 mmHg 67%
    21:00 +26°C° 0 mm 4 mps 758 mmHg 69%
    22:00 +26°C° 0 mm 3 mps 758 mmHg 71%
    23:00 +26°C° 0 mm 3 mps 758 mmHg 73%

    2 March, Monday

    Time Temperature Precipitation Wind Pressure Humidity
    00:00 +25°C° 0 mm 3 mps 758 mmHg 74%
    01:00 +25°C° 0 mm 2 mps 757 mmHg 75%
    02:00 +24°C° 0 mm 2 mps 757 mmHg 77%
    03:00 +24°C° 0 mm 2 mps 756 mmHg 78%
    04:00 +24°C° 0 mm 2 mps 756 mmHg 79%
    05:00 +23°C° 0 mm 2 mps 756 mmHg 80%
    06:00 +25°C° 0 mm 2 mps 757 mmHg 76%
    07:00 +26°C° 0 mm 2 mps 758 mmHg 72%
    08:00 +27°C° 0 mm 2 mps 759 mmHg 68%
    09:00 +29°C° 0 mm 2 mps 758 mmHg 59%
    10:00 +31°C° 0 mm 2 mps 758 mmHg 50%
    11:00 +32°C° 0 mm 2 mps 758 mmHg 41%
    12:00 +34°C° 0 mm 2 mps 757 mmHg 41%
    13:00 +34°C° 0 mm 3 mps 757 mmHg 40%
    14:00 +34°C° 0 mm 3 mps 756 mmHg 40%
    15:00 +33°C° 0 mm 3 mps 756 mmHg 44%
    16:00 +31°C° 0 mm 3 mps 756 mmHg 47%
    17:00 +30°C° 0 mm 3 mps 756 mmHg 51%
    18:00 +29°C° 0 mm 3 mps 757 mmHg 56%
    19:00 +28°C° 0 mm 3 mps 757 mmHg 61%
    20:00 +27°C° 0 mm 3 mps 758 mmHg 66%
    21:00 +26°C° 0 mm 3 mps 758 mmHg 68%
    22:00 +26°C° 0 mm 3 mps 758 mmHg 69%
    23:00 +26°C° 0 mm 3 mps 758 mmHg 71%

    3 March, Tuesday

    Time Temperature Precipitation Wind Pressure Humidity
    00:00 +25°C° 0 mm 3 mps 757 mmHg 72%
    01:00 +25°C° 0 mm 2 mps 757 mmHg 74%
    02:00 +25°C° 0 mm 2 mps 756 mmHg 75%
    03:00 +24°C° 0 mm 2 mps 756 mmHg 77%
    04:00 +24°C° 0 mm 2 mps 756 mmHg 79%
    05:00 +23°C° 0 mm 2 mps 756 mmHg 81%
    06:00 +25°C° 0 mm 2 mps 757 mmHg 75%
    07:00 +26°C° 0 mm 3 mps 758 mmHg 68%
    08:00 +28°C° 0 mm 3 mps 758 mmHg 62%
    09:00 +29°C° 0 mm 3 mps 758 mmHg 54%
    10:00 +31°C° 0 mm 3 mps 758 mmHg 45%
    11:00 +34°C° 0 mm 3 mps 758 mmHg 36%
    12:00 +35°C° 0 mm 3 mps 757 mmHg 37%
    13:00 +35°C° 0 mm 4 mps 756 mmHg 37%
    14:00 +35°C° 0 mm 4 mps 756 mmHg 37%
    15:00 +34°C° 0 mm 4 mps 755 mmHg 44%
    16:00 +32°C° 0 mm 4 mps 755 mmHg 50%
    17:00 +30°C° 0 mm 5 mps 755 mmHg 57%
    18:00 +29°C° 0 mm 4 mps 756 mmHg 61%
    19:00 +28°C° 0 mm 4 mps 756 mmHg 66%
    20:00 +27°C° 0 mm 4 mps 757 mmHg 71%
    21:00 +27°C° 0 mm 4 mps 757 mmHg 72%
    22:00 +26°C° 0 mm 4 mps 757 mmHg 73%
    23:00 +26°C° 0 mm 4 mps 757 mmHg 74%

    4 March, Wednesday

    Time Temperature Precipitation Wind Pressure Humidity
    00:00 +26°C° 0 mm 4 mps 756 mmHg 75%
    01:00 +25°C° 0 mm 3 mps 756 mmHg 77%
    02:00 +25°C° 0 mm 3 mps 755 mmHg 78%
    03:00 +25°C° 0 mm 3 mps 755 mmHg 79%
    04:00 +24°C° 0 mm 3 mps 755 mmHg 80%
    05:00 +24°C° 0 mm 3 mps 755 mmHg 80%
    06:00 +25°C° 0 mm 4 mps 756 mmHg 74%
    07:00 +27°C° 0 mm 4 mps 757 mmHg 68%
    08:00 +28°C° 0 mm 4 mps 757 mmHg 62%
    09:00 +30°C° 0 mm 4 mps 758 mmHg 54%
    10:00 +33°C° 0 mm 4 mps 758 mmHg 45%
    11:00 +35°C° 0 mm 3 mps 758 mmHg 37%
    12:00 +35°C° 0 mm 4 mps 757 mmHg 37%
    13:00 +36°C° 0 mm 5 mps 756 mmHg 37%
    14:00 +36°C° 0 mm 5 mps 755 mmHg 37%
    15:00 +35°C° 0 mm 5 mps 754 mmHg 42%
    16:00 +34°C° 0 mm 5 mps 754 mmHg 46%
    17:00 +32°C° 0 mm 5 mps 754 mmHg 51%
    18:00 +30°C° 0 mm 6 mps 755 mmHg 56%
    19:00 +29°C° 0 mm 6 mps 755 mmHg 60%
    20:00 +28°C° 0 mm 6 mps 756 mmHg 65%
    21:00 +28°C° 0 mm 5 mps 756 mmHg 68%
    22:00 +27°C° 0 mm 5 mps 756 mmHg 72%
    23:00 +27°C° 0 mm 5 mps 756 mmHg 75%
    Show more